UAL2098 KBOS-KAID

Flight info

Callsign UAL2098
Flight time N/A
Altitude 32000
Route REVSS6 REVSS CTR HNK PSB AIR
Aircraft B38M/M-SDE1FGHILORVWXY/HB1

Departure

Time 2026-05-04 14:58
Airport Boston Logan International Airport (KBOS)

Arrival

Time N/A
Airport Anderson Municipal Darlington Field (KAID)
Time Latitude Longitude Altitude Speed Heading
2026-05-04 14:02 42.36127 -71.01656 28 ft 0 kts 290°
2026-05-04 14:09 42.36127 -71.01655 38 ft 0 kts 290°
2026-05-04 14:18 42.36127 -71.01654 38 ft 0 kts 290°
2026-05-04 14:20 42.36126 -71.01654 38 ft 0 kts 290°
2026-05-04 14:27 42.36126 -71.01653 28 ft 0 kts 290°
2026-05-04 14:37 42.36126 -71.01652 28 ft 0 kts 290°
2026-05-04 14:46 42.36125 -71.01650 28 ft 1 kts 290°
2026-05-04 14:47 42.36120 -71.01629 28 ft 3 kts 290°
2026-05-04 14:47 42.36113 -71.01603 29 ft 3 kts 290°
2026-05-04 14:47 42.36107 -71.01582 29 ft 2 kts 291°
2026-05-04 14:47 42.36098 -71.01561 30 ft 3 kts 324°
2026-05-04 14:48 42.36083 -71.01555 30 ft 3 kts 10°
2026-05-04 14:48 42.36067 -71.01560 31 ft 1 kts 20°
2026-05-04 14:48 42.36066 -71.01561 31 ft 0 kts 20°
2026-05-04 14:51 42.36079 -71.01555 31 ft 4 kts 20°
2026-05-04 14:51 42.36114 -71.01537 30 ft 7 kts 21°
2026-05-04 14:52 42.36167 -71.01511 29 ft 10 kts 16°
2026-05-04 14:52 42.36247 -71.01478 26 ft 15 kts 19°
2026-05-04 14:52 42.36352 -71.01421 25 ft 17 kts 21°
2026-05-04 14:52 42.36466 -71.01367 27 ft 17 kts 23°
2026-05-04 14:53 42.36564 -71.01304 27 ft 14 kts 25°
2026-05-04 14:53 42.36653 -71.01263 29 ft 14 kts 14°
2026-05-04 14:53 42.36752 -71.01244 28 ft 16 kts 346°
2026-05-04 14:53 42.36856 -71.01262 27 ft 17 kts 40°
2026-05-04 14:54 42.36948 -71.01153 27 ft 18 kts 42°
2026-05-04 14:54 42.37064 -71.01058 25 ft 21 kts 26°
2026-05-04 14:54 42.37204 -71.00968 25 ft 23 kts 25°
2026-05-04 14:54 42.37358 -71.00880 26 ft 25 kts 21°
2026-05-04 14:55 42.37525 -71.00799 26 ft 26 kts 19°
2026-05-04 14:55 42.37694 -71.00715 30 ft 26 kts 18°
2026-05-04 14:55 42.37831 -71.00632 31 ft 18 kts 56°
2026-05-04 14:55 42.37837 -71.00581 30 ft 0 kts 97°
2026-05-04 14:56 42.37836 -71.00571 30 ft 3 kts 101°
2026-05-04 14:56 42.37829 -71.00526 30 ft 7 kts 103°
2026-05-04 14:56 42.37791 -71.00479 28 ft 10 kts 186°
2026-05-04 14:56 42.37721 -71.00506 29 ft 11 kts 199°
2026-05-04 14:57 42.37700 -71.00516 29 ft 0 kts 199°
2026-05-04 14:57 42.37670 -71.00530 30 ft 13 kts 199°
2026-05-04 14:57 42.37332 -71.00695 25 ft 92 kts 200°
2026-05-04 14:57 42.36549 -71.01120 131 ft 147 kts 203°
2026-05-04 14:58 42.35452 -71.01506 667 ft 170 kts 197°
2026-05-04 14:58 42.34332 -71.01402 1893 ft 164 kts 167°
2026-05-04 14:58 42.33300 -71.00431 2415 ft 202 kts 139°
2026-05-04 14:58 42.32365 -70.98868 2897 ft 225 kts 136°
2026-05-04 14:59 42.31471 -70.96994 3364 ft 256 kts 115°
2026-05-04 14:59 42.31278 -70.94487 3857 ft 279 kts 83°
2026-05-04 14:59 42.32046 -70.89346 4957 ft 285 kts 80°
2026-05-04 15:00 42.32424 -70.86718 4963 ft 285 kts 81°
2026-05-04 15:00 42.32799 -70.84083 4898 ft 286 kts 81°
2026-05-04 15:00 42.33089 -70.81438 4886 ft 286 kts 94°
2026-05-04 15:01 42.31759 -70.76409 4959 ft 290 kts 123°
2026-05-04 15:01 42.30737 -70.74070 4956 ft 284 kts 138°
2026-05-04 15:01 42.29219 -70.72535 4966 ft 266 kts 166°
2026-05-04 15:01 42.27468 -70.72063 4997 ft 252 kts 188°
2026-05-04 15:02 42.25758 -70.72230 4993 ft 249 kts 193°
2026-05-04 15:02 42.24041 -70.72491 4995 ft 249 kts 194°
2026-05-04 15:02 42.22326 -70.72804 4985 ft 249 kts 195°
2026-05-04 15:02 42.20641 -70.73256 4976 ft 242 kts 208°
2026-05-04 15:03 42.19338 -70.74541 4977 ft 231 kts 235°
2026-05-04 15:03 42.18630 -70.76459 4981 ft 230 kts 254°
2026-05-04 15:03 42.18247 -70.78552 4983 ft 230 kts 256°
2026-05-04 15:03 42.17899 -70.80663 4978 ft 231 kts 257°
2026-05-04 15:04 42.17573 -70.82782 4988 ft 231 kts 257°
2026-05-04 15:04 42.17264 -70.84880 4998 ft 231 kts 257°
2026-05-04 15:04 42.16958 -70.87005 4981 ft 231 kts 258°
2026-05-04 15:04 42.16659 -70.89131 5004 ft 231 kts 258°
2026-05-04 15:05 42.16363 -70.91259 4984 ft 231 kts 258°
2026-05-04 15:05 42.16073 -70.93388 4981 ft 231 kts 260°
2026-05-04 15:05 42.16091 -70.95559 4999 ft 235 kts 272°
2026-05-04 15:05 42.16250 -70.97763 5536 ft 235 kts 272°
2026-05-04 15:06 42.16406 -70.99944 6638 ft 235 kts 272°
2026-05-04 15:06 42.16566 -71.02162 7523 ft 241 kts 272°
2026-05-04 15:06 42.16730 -71.04407 8433 ft 246 kts 272°
2026-05-04 15:07 42.17069 -71.09072 10239 ft 255 kts 273°
2026-05-04 15:07 42.17247 -71.11523 10741 ft 273 kts 273°
2026-05-04 15:07 42.17437 -71.14155 11200 ft 290 kts 274°
2026-05-04 15:07 42.17636 -71.16915 11800 ft 301 kts 274°
2026-05-04 15:08 42.17838 -71.19728 12696 ft 303 kts 274°
2026-05-04 15:08 42.18039 -71.22540 13484 ft 308 kts 274°
2026-05-04 15:08 42.18245 -71.25423 14252 ft 311 kts 274°
2026-05-04 15:08 42.18453 -71.28345 14989 ft 315 kts 275°
2026-05-04 15:09 42.18662 -71.31303 15738 ft 319 kts 275°
2026-05-04 15:09 42.18873 -71.34292 16455 ft 322 kts 275°
2026-05-04 15:09 42.19087 -71.37337 16900 ft 329 kts 275°
2026-05-04 15:10 42.19514 -71.43461 16996 ft 327 kts 275°
2026-05-04 15:10 42.19726 -71.46516 16995 ft 327 kts 275°
2026-05-04 15:10 42.20145 -71.52578 16931 ft 326 kts 275°
2026-05-04 15:11 42.20354 -71.55624 16926 ft 326 kts 275°
2026-05-04 15:11 42.20563 -71.58669 16898 ft 326 kts 275°
2026-05-04 15:11 42.20770 -71.61719 16889 ft 327 kts 275°
2026-05-04 15:11 42.20977 -71.64768 16886 ft 327 kts 275°
2026-05-04 15:12 42.21183 -71.67820 16880 ft 327 kts 275°
2026-05-04 15:12 42.21389 -71.70872 16882 ft 327 kts 275°
2026-05-04 15:12 42.21592 -71.73883 16882 ft 326 kts 275°
2026-05-04 15:12 42.21683 -71.76937 16866 ft 326 kts 265°
2026-05-04 15:13 42.21443 -71.79984 16888 ft 327 kts 266°
2026-05-04 15:13 42.21248 -71.83042 16875 ft 327 kts 266°
2026-05-04 15:13 42.21067 -71.86102 16881 ft 327 kts 266°
2026-05-04 15:13 42.20894 -71.89163 16879 ft 327 kts 266°
2026-05-04 15:14 42.20726 -71.92220 16885 ft 327 kts 267°
2026-05-04 15:14 42.20560 -71.95281 16882 ft 327 kts 267°
2026-05-04 15:14 42.20397 -71.98302 16885 ft 327 kts 267°
2026-05-04 15:14 42.20231 -72.01363 16881 ft 327 kts 267°
2026-05-04 15:15 42.20064 -72.04420 16876 ft 327 kts 266°
2026-05-04 15:15 42.19897 -72.07484 16879 ft 327 kts 266°
2026-05-04 15:15 42.19729 -72.10543 16885 ft 327 kts 267°
2026-05-04 15:16 42.19390 -72.16663 16886 ft 327 kts 266°
2026-05-04 15:16 42.19222 -72.19685 16874 ft 327 kts 266°
2026-05-04 15:16 42.18879 -72.25803 16861 ft 327 kts 266°
2026-05-04 15:17 42.18705 -72.28866 16886 ft 327 kts 266°
2026-05-04 15:17 42.18357 -72.34987 16890 ft 328 kts 266°
2026-05-04 15:17 42.18181 -72.38052 16885 ft 328 kts 266°
2026-05-04 15:18 42.18005 -72.41113 16886 ft 328 kts 266°
2026-05-04 15:18 42.17827 -72.44177 16887 ft 328 kts 266°
2026-05-04 15:18 42.17651 -72.47204 16889 ft 328 kts 266°
2026-05-04 15:19 42.17293 -72.53324 16886 ft 328 kts 266°
2026-05-04 15:19 42.17112 -72.56392 16887 ft 328 kts 266°
2026-05-04 15:19 42.16749 -72.62516 16891 ft 328 kts 266°
2026-05-04 15:20 42.16566 -72.65591 16890 ft 329 kts 266°
2026-05-04 15:20 42.16383 -72.68620 16889 ft 329 kts 266°
2026-05-04 15:20 42.15814 -72.71593 16864 ft 332 kts 246°
2026-05-04 15:20 42.14537 -72.74205 16898 ft 336 kts 237°
2026-05-04 15:21 42.13592 -72.75913 16883 ft 336 kts 237°
2026-05-04 15:21 42.11714 -72.79230 16882 ft 336 kts 236°